This demonstration page uses our WeatherBlox Daily Observations layout. Learn more.

Left ArrowRight Arrow

Hourly Observations for June 27, 2018

Temp ( °F °C ) Dew Point ( °F °C ) Humidity (%) Winds ( mph kmh ) Pressure ( in mb ) Visibility ( mi km ) Precip ( " mm )
12:57 am 00:57 Clear 69 20.6 66 18.9 90 90 SE 10 17 29.84 1011 10 16 0.00 0.00
1:57 am 01:57 Clear 68 20 65 18.3 90 90 SE 8 13 29.85 1011 10 16 0.00 0.00
2:57 am 02:57 Clear 67 19.4 65 18.3 93 93 SE 5 7 29.84 1011 10 16 0.00 0.00
3:57 am 03:57 Clear 66 18.9 64 17.8 93 93 SE 5 7 29.83 1010 10 16 0.00 0.00
4:57 am 04:57 Clear 65 18.3 63 17.2 93 93 SSE 5 7 29.80 1009 10 16 0.00 0.00
5:57 am 05:57 Clear 65 18.3 63 17.2 93 93 SE 6 9 29.79 1009 10 16 0.00 0.00
6:57 am 06:57 Sunny 65 18.3 64 17.8 97 97 E 3 6 29.80 1009 10 16 0.00 0.00
7:57 am 07:57 Sunny 69 20.6 66 18.9 90 90 ESE 7 11 29.81 1009 10 16 0.00 0.00
8:57 am 08:57 Sunny 74 23.3 70 21.1 88 88 SE 12 19 29.80 1009 10 16 0.00 0.00
9:57 am 09:57 Sunny 78 25.6 71 21.7 79 79 ESE 12 19 29.80 1009 10 16 0.00 0.00
10:48 am 10:48 Mostly Cloudy 81 27 73 23 79 79 ESE 8 13 29.74 1007 9 14 0.00 0.00
10:57 am 10:57 Mostly Cloudy 79 26.1 72 22.2 79 79 ESE 9 15 29.82 1010 10 16 0.00 0.00
11:57 am 11:57 Cloudy 80 26.7 73 22.8 79 79 ESE 14 22 29.83 1010 10 16 0.00 0.00
12:57 pm 12:57 Mostly Cloudy 83 28.3 73 22.8 72 72 ESE 15 24 29.82 1010 10 16 0.00 0.00
1:29 pm 13:29 Mostly Sunny 84 29 73 23 70 70 SE 21 33 29.74 1007 10 16 0.00 0.00
1:57 pm 13:57 Partly Cloudy 84 28.9 74 23.3 72 72 ESE 17 28 29.80 1009 10 16 0.00 0.00
2:19 pm 14:19 Mostly Cloudy 84 29 73 23 70 70 SE 10 17 29.74 1007 10 16 0.00 0.00
2:57 pm 14:57 Mostly Cloudy 86 30 74 23.3 67 67 ESE 13 20 29.80 1009 10 16 0.00 0.00
3:57 pm 15:57 Mostly Cloudy 86 30 75 23.9 70 70 ESE 12 19 29.80 1009 10 16 0.00 0.00
4:57 pm 16:57 Mostly Cloudy 88 31.1 76 24.4 68 68 SE 10 17 29.79 1009 10 16 0.00 0.00
5:57 pm 17:57 Mostly Sunny 88 31.1 76 24.4 68 68 SSE 7 11 29.79 1009 10 16 0.00 0.00
6:57 pm 18:57 Sunny 88 31.1 76 24.4 68 68 ESE 8 13 29.78 1008 10 16 0.00 0.00
7:57 pm 19:57 Sunny 86 30 78 25.6 77 77 E 8 13 29.78 1009 10 16 0.00 0.00
8:57 pm 20:57 Sunny 82 27.8 78 25.6 88 88 E 8 13 29.79 1009 10 16 0.00 0.00
9:57 pm 21:57 Clear 79 26.1 76 24.4 90 90 E 9 15 29.79 1009 9 14 0.00 0.00
10:57 pm 22:57 Clear 77 25 75 23.9 94 94 E 10 17 29.82 1010 10 16 0.00 0.00
11:57 pm 23:57 Clear 75 23.9 73 22.8 94 94 E 9 15 29.82 1010 10 16 0.00 0.00

Powered by AerisWeather